COSMOS 1275 DEB

Satellite information

Favourite Embed

Satellite Type and Status

DEBRISIN ORBIT

Key statistics

Satellite COSMOS 1275 DEB at a glance.

Uptime

16212

Days in orbit

Revolutions

≈ 13.9

Per day

Orbit

LEO

Low Earth Orbit

Inclination

83.0

Latest

Satellite identification and parameters

Extended collection of information and parameters for COSMOS 1275 DEB.

Object identification

Identified? True

Debris? True

Object name: COSMOS 1275 DEB

International designator: 1981-053HC

Object number (NORAD): 13808

Object ID (CCSDS): 13808

Country: COMMONWEALTH OF INDEPENDENT STATES (CIS)

Current information (Y/N): Y

RCS size: SMALL

Orbital parameters

Period: 103.363 minutes

Inclination: 83.0335 deg

SMA: 7295.739 km

Apoapsis: 961.069 km

Periapsis: 874.138 km

RAAN: 158.9562 deg

Eccentricy: 0.00595764

Argument of periapsis: 91.2328 deg

Mean anomaly: 30.8868 deg

Mean motion: 13.93153156 rev/day

Mean motion (dot): 0.00002035 rev/day2

B* drag term: 0.0015281163 1/REarth

Two-line elements (TLE)

Creation date: Oct. 22, 2025, 5:40 p.m.

Reference frame: TEME

Reference center: EARTH

Epoch: Oct. 22, 2025, 3:38 a.m. UTC

TLE line 0: 0 COSMOS 1275 DEB

TLE line 1: 1 13808U 81053HC 25295.15168053 .00002035 00000-0 15281-2 0 9998

TLE line 2: 2 13808 83.0335 158.9562 0059576 91.2328 30.8868 13.93153156157134

Live tracking on map

Real-time ground track for satellite COSMOS 1275 DEB.

In-orbit conjunctions

A list of the most updated potential collisions computed for object COSMOS 1275 DEB.

Target Orbit TCA Probability of collision Miss distance Type
THORAD AGENA D DEB SSO 2024-11-11 12:52:58 0.0006228862 331.0 (m) DEBRIS
COSMOS 1375 DEB LEO 2024-11-08 16:18:13 0.000493955 280.0 (m) DEBRIS
FENGYUN 1C DEB SSO 2024-09-27 08:09:17 0.0002693676 412.0 (m) DEBRIS

Associated space launch

Navigation satellite providing location information for the Tsiklon-B navigation system

COSMOS 1275 DEB was lifted into orbit during the mission ‘Kosmos-3M | Parus 27’, on board a Kosmos-3M space rocket.

The launch took place on June 4, 1981, 3:41 p.m. from 132/2.

For more information about the launch, click the button.

Launch to space Kosmos-3M | Parus 27
Kosmos-3M | Parus 27

Agency: N/A

Status: Launch Successful

Launch date: June 4, 1981, 3:41 p.m. UTC

Rocket: Kosmos-3M

Launch pad: 132/2

Location: Plesetsk Cosmodrome, Russian Federation

...

Latest news about this satellite

There are no fresh news available about this satellite. Check back as we update our databases every day.


Newsletter sign-up

Weekly statistics, charts and insights to help you stay on top of the space industry.